Regional Weather Roundup
Issued by NWS

Home | Current Version | Previous Version | Text Only | Print | Product List | Glossary Off
Versions: 1 2 3 4 5 6 7 8 9 10 11 12 13 14 15 16 17 18 19 20 21 22 23 24 25 26 27 28 29 30 31 32 33 34 35 36 37 38 39 40 41 42 43 44 45 46 47 48 49 50

000
ASUS43 KBIS 311320
RWRND

NORTH DAKOTA REGIONAL WEATHER ROUNDUP
NATIONAL WEATHER SERVICE BISMARCK ND
800 AM CDT THU JUL 31 2014

NOTE: "FAIR" INDICATES FEW OR NO CLOUDS BELOW 12,000 FEET WITH NO
SIGNIFICANT WEATHER AND/OR OBSTRUCTIONS TO VISIBILITY.


NDZ001>003-009>011-017-311400-
NORTHWEST NORTH DAKOTA

CITY           SKY/WX    TMP DP  RH WIND       PRES   REMARKS
WILLISTON      CLOUDY    66  60  81 CALM      30.06F
MINOT          SUNNY     62  54  74 CALM      30.09R
MINOT AFB      SUNNY     61  60  97 W5        30.08S
$$

NDZ018>021-031>035-040>046-311400-
SOUTHWEST NORTH DAKOTA

CITY           SKY/WX    TMP DP  RH WIND       PRES   REMARKS
BISMARCK       MOSUNNY   60  56  86 CALM      30.11R
DICKINSON      PTSUNNY   59  55  87 SE3       30.12F
GARRISON         N/A     61  59  93 N5        30.11R
HETTINGER ARPT PTSUNNY   59  55  87 NW6       30.16R
$$

NDZ004>008-012>016-024-026-027-054-311400-
NORTHEAST NORTH DAKOTA

CITY           SKY/WX    TMP DP  RH WIND       PRES   REMARKS
GRAND FORKS    SUNNY     63  60  90 W3        30.03S
GRND FRKS AFB  SUNNY     65  64  95 W6        30.04F
DEVILS LAKE    SUNNY     64  57  77 W3        30.06S
$$

NDZ022-023-025-028>030-036>039-047>053-311400-
SOUTHEAST NORTH DAKOTA

CITY           SKY/WX    TMP DP  RH WIND       PRES   REMARKS
FARGO          SUNNY     61  57  87 CALM      30.05R
JAMESTOWN      SUNNY     63  57  81 NW3       30.08S
$$



USA.gov is the U.S. government's official web portal to all federal, state and local government web resources and services.